Location: Boiro
(42.6475°N, 8.8834°W)
Time: 06:49:03
(UTC+01:00)

Vanguard 1 - Pass Details

Date: 04 December 2021
Orbit: 652 x 3830 km, 34.2° (Epoch: 21 January)

Event Time Altitude Azimuth Distance (km) Brightness Sun altitude
Rises 21:09:02 0° 167° (SSE) 6,390 14.1 -33.6°
Enters shadow 21:16:22 - 146° (SE) 6,120 13.8 -34.9°
Reaches altitude 10° 21:17:53 10° 141° (SE) 6,122 - -35.2°
Maximum altitude 21:24:03 12° 122° (ESE) 6,312 - -36.4°
Drops below altitude 10° 21:30:44 10° 104° (ESE) 6,786 - -37.6°
Sets 21:42:03 0° 81° (E) 7,971 - -39.7°
